User: anonymous   Login
Location: ??????
(42.0089°N, 44.3281°E)
Time: 11:38:58
(UTC+00:00)
Language:

Meteor 1-11 - Orbit

View from above orbital plane
View from above orbital plane
View from above satellite
View from above satellite

Ground track
Ground track

The orbit data is extracted from the following two-line orbital elements,

1 05917U 72022A   22017.62790812  .00000175  00000-0  93967-4 0  9993
2 05917  81.2221  54.6193 0030546 196.8467 163.1691 14.08734860557507
Epoch (UTC): 17 January 2022 15:04:11
Eccentricity: 0.0030546
inclination: 81.2221°
perigee height: 841 km
apogee height: 886 km
right ascension of ascending node: 54.6193°
argument of perigee: 196.8467°
revolutions per day: 14.08734860
mean anomaly at epoch: 163.1691°
orbit number at epoch: 55750

The dashed part of the orbit path shows where the satellite is in the earth's shadow,  

DLR